[[{"header":{"parameterUnit":"m.s-1","parameterCategory":1,"la1":30.2991,"la2":30.254,"lo1":-89.0895,"lo2":-89.0444,"dy":0.0017,"dx":0.0017,"nx":28,"ny":28,"refTime":"2025-03-01T09:00:00:Z","depth":0,"parameterNumber":2,"parameterNumberName":"U-component_of_WINDS"},"data":[0,0,0,0,0,0,0,0,0,0,0,0,0,0,0,0,0,0,0,0,0,0,0,0,0,0,0,0,0,0,0,0,0,0,0,0,0,0,0,0,0,0,0,0,0,0,0,0,0,0,0,0,0,0,0,0,0,0,-4.8226,-4.8227,0,-4.8247,-4.8247,-4.8247,-4.8083,-4.8078,-4.8074,-4.8069,-4.809,-4.8095,-4.81,0,0,0,0,0,0,0,0,0,0,0,0,0,-4.8046,-4.8051,-4.8226,-4.8227,-4.8227,-4.8247,-4.8247,-4.8247,-4.8084,-4.8078,-4.8073,-4.8067,-4.8089,-4.8095,-4.81,0,0,0,0,0,0,0,0,0,0,0,0,0,-4.8102,-4.8052,-4.8226,-4.8148,-4.8141,-4.8246,-4.8247,-4.8247,-4.8085,-4.8078,-4.8071,-4.8065,-4.8087,-4.8094,-4.8101,-4.8283,0,0,-4.8123,-4.8126,0,0,0,0,0,0,0,0,-4.8099,-4.8108,-4.8159,-4.8153,-4.8146,-4.8155,-4.8191,-4.8259,-4.8087,-4.8106,-4.8069,-4.8061,-4.8118,-4.8122,-4.8141,-4.8284,-4.8285,-4.8124,-4.8128,-4.8131,-4.8133,0,0,0,0,0,0,0,-4.8095,-4.8107,-4.8234,-4.816,-4.8152,-4.8111,-4.8112,-4.8203,-4.815,-4.8104,-4.8092,-4.8097,-4.8113,-4.8134,-4.814,-4.8285,-4.8124,-4.813,-4.8135,-4.8137,-4.8578,-4.8585,0,0,0,0,0,0,-4.8102,-4.8104,-4.8234,-4.8235,-4.8105,-4.812,-4.8121,-4.8159,-4.8149,-4.814,-4.8103,-4.8089,-4.8125,-4.8132,-4.814,-4.8352,-4.8131,-4.8138,-4.8142,-4.8571,-4.858,-4.8588,0,0,0,0,0,0,-4.8099,-4.8115,-4.8233,-4.8167,-4.8178,-4.8131,-4.8175,-4.8163,-4.8184,-4.8148,-4.8137,-4.8134,-4.812,-4.813,-4.8249,-4.835,-4.8141,-4.8148,-4.8562,-4.8574,-4.8584,-4.8777,0,0,0,0,0,0,-4.8094,-4.8115,-4.8183,-4.8169,-4.8183,-4.8342,-4.8182,-4.8169,-4.8197,-4.818,-4.8175,-4.8167,-4.8115,-4.8239,-4.8256,-4.8356,-4.8154,-4.8553,-4.8567,-4.858,-4.8761,-4.8793,-4.8821,0,0,0,0,0,-4.8088,-4.8237,-4.8188,-4.8204,-4.8267,-4.8348,-4.8355,-4.8293,-4.8206,-4.8275,-4.8251,-4.8167,-4.8337,-4.8252,-4.827,-4.8374,-4.8546,-4.8563,-4.8579,-4.8748,-4.8787,-4.882,0,0,0,0,0,0,-4.8264,-4.8234,-4.8179,-4.8327,-4.8342,-4.832,-4.8404,-4.8336,-4.8375,-4.8357,-4.8277,-4.8278,-4.841,-4.8404,-4.831,-4.855,-4.8426,-4.8447,-4.8548,-4.8585,-4.8614,-4.8612,-4.816,0,0,0,0,0,-4.832,-4.8388,-4.8358,-4.8492,-4.8502,-4.8453,-4.8485,-4.8436,-4.8447,-4.8452,-4.8437,-4.8451,-4.8507,-4.8546,-4.8596,-4.876,-4.8756,-4.8841,-4.887,-4.8895,-4.8914,-4.9,-4.9037,-4.8642,-4.8642,-4.8642,0,0,-4.8437,-4.8429,-4.8476,-4.8527,-4.8532,-4.8604,-4.8459,-4.8541,-4.8593,-4.8464,-4.8575,-4.8565,-4.8576,-4.8718,-4.878,-4.8717,-4.9022,-4.8916,-4.8936,-4.8941,-4.9021,-4.9058,-4.9091,-4.8654,-4.8652,-4.865,0,0,-4.8685,-4.8687,-4.8798,-4.8806,-4.8816,-4.8782,-4.8809,-4.8798,-4.8787,-4.8897,-4.8802,-4.8863,-4.8962,-4.8973,-4.8992,-4.9246,-4.917,-4.9265,-4.9419,-4.9504,-4.9535,-4.9562,-4.9652,-4.9685,-4.9284,-4.9284,-4.9285,0,-4.8829,-4.8933,-4.8864,-4.8953,-4.8978,-4.8865,-4.8977,-4.8989,-4.9014,-4.9034,-4.8964,-4.9085,-4.9084,-4.9227,-4.929,-4.9309,-4.9337,-4.9264,-4.9536,-4.9563,-4.9587,-4.9672,-4.9706,-4.9296,-4.9294,-4.9293,-4.9292,0,-4.9109,-4.9183,-4.9272,-4.9299,-4.9335,-4.9435,-4.9381,-4.9425,-4.9373,-4.9347,-4.946,-4.9456,-4.9502,-4.9533,-4.9483,-4.967,-4.963,-4.955,-4.9424,-4.9637,-4.9715,-4.9747,-4.9312,-4.9308,-4.9304,-4.9301,0,0,-4.9467,-4.9456,-4.949,-4.9501,-4.9504,-4.9559,-4.9655,-4.97,-4.9739,-4.9761,-4.9839,-4.9925,-4.9851,-4.9872,-4.9823,-4.9898,-5.0098,-4.9807,-4.9806,-4.9861,-5.0303,-5.0363,-5.0402,-5.0049,-5.0055,-5.006,-5.0302,0,-4.9709,-4.9871,-4.9811,-4.9977,-5.0044,-4.9939,-5.0022,-5.0033,-5.0011,-5.0065,-5.0041,-5.0103,-5.0001,-5.0013,-5.0082,-5.006,-5.0186,-5.0041,-5.012,-5.0123,-5.0119,-5.0442,-5.0506,-5.0734,-5.0332,-5.0337,-5.0341,0,-5.0012,-5.0046,-5.0219,-5.021,-5.0236,-5.0312,-5.0348,-5.0402,-5.0412,-5.0391,-5.0416,-5.035,-5.0443,-5.0319,-5.0445,-5.0348,-5.0377,-5.0371,-5.0378,-5.0382,-5.0244,-5.0454,-5.0806,-5.084,-5.0388,-5.0385,-5.0381,0,-5.0255,-5.0344,-5.0459,-5.0472,-5.0465,-5.052,-5.052,-5.0523,-5.0555,-5.0587,-5.0607,-5.065,-5.0674,-5.0709,-5.0657,-5.0572,-5.0791,-5.0663,-5.0776,-5.0778,-5.0826,-5.0823,-5.1186,-5.0847,-5.0847,-5.0846,-5.0845,0,-5.053,-5.064,-5.0568,-5.0638,-5.0758,-5.0689,-5.0809,-5.0797,-5.0802,-5.0868,-5.078,-5.0844,-5.0772,-5.0829,-5.0789,-5.09,-5.0911,-5.0897,-5.0885,-5.0904,-5.0906,-5.0921,-5.0903,-5.0855,-5.0853,-5.0851,-5.085,0,-5.0821,-5.0777,-5.0895,-5.0879,-5.0878,-5.0966,-5.0952,-5.1017,-5.099,-5.1074,-5.109,-5.1048,-5.1111,-5.1063,-5.1125,-5.1098,-5.1244,-5.121,-5.124,-5.1231,-5.1346,-5.1336,-5.173,-5.1778,-5.141,-5.1414,-5.1417,0,-5.0998,-5.108,-5.1073,-5.1111,-5.1116,-5.1179,-5.121,-5.1147,-5.1183,-5.1201,-5.1264,-5.1319,-5.136,-5.1466,-5.144,-5.1487,-5.1453,-5.1588,-5.146,-5.1476,-5.1454,-5.1449,-5.1457,-5.1614,-5.1618,-5.1622,-5.1625,0,-5.1318,-5.1293,-5.1341,-5.1384,-5.1424,-5.1454,-5.1477,-5.1513,-5.1448,-5.1494,-5.1557,-5.1589,-5.1652,-5.1708,-5.1747,-5.1746,-5.1675,-5.1666,-5.1694,-5.1714,-5.1728,-5.1721,-5.131,-5.1657,-5.1653,-5.1651,-5.1649,-5.1648,-5.1556,-5.1624,-5.1629,-5.1687,-5.1698,-5.1721,-5.1781,-5.1762,-5.1813,-5.186,-5.1819,-5.1896,-5.1904,-5.1948,-5.1956,-5.2015,-5.1959,-5.2001,-5.2011,-5.2022,-5.2038,-5.172,-5.2022,-5.2021,-5.202,-5.2019,-5.2018,0,-5.187,-5.1869,-5.1922,-5.1957,-5.2003,-5.1933,-5.1955,-5.1997,-5.2065,-5.2079,-5.2122,-5.2195,-5.2249,-5.2229,-5.2276,-5.2327,-5.2296,-5.2342,-5.2337,-5.2338,-5.2085,-5.2055,-5.2366,-5.2366,-5.2366,-5.2366,-5.2366,-5.2366,-5.2038,-5.2149,-5.2124,-5.2239,-5.2237,-5.2311,-5.2329,-5.2351,-5.2361,-5.2447,-5.2492,-5.2478,-5.2478,-5.2526,-5.2573,-5.2565,-5.2586,-5.2644,-5.2625,-5.239,-5.2355,-5.2323,-5.2294,-5.265,-5.265,-5.2872,-5.2874,-5.2875]},{"header":{"parameterUnit":"m.s-1","parameterCategory":1,"la1":30.2991,"la2":30.254,"lo1":-89.0895,"lo2":-89.0444,"dy":0.0017,"dx":0.0017,"nx":28,"ny":28,"refTime":"2025-03-01T09:00:00:Z","depth":0,"parameterNumber":3,"parameterNumberName":"V-component_of_WINDS"},"data":[0,0,0,0,0,0,0,0,0,0,0,0,0,0,0,0,0,0,0,0,0,0,0,0,0,0,0,0,0,0,0,0,0,0,0,0,0,0,0,0,0,0,0,0,0,0,0,0,0,0,0,0,0,0,0,0,0,0,-0.4353,-0.4354,0,-0.4451,-0.4452,-0.4454,-0.4515,-0.4515,-0.4516,-0.4516,-0.4616,-0.4618,-0.462,0,0,0,0,0,0,0,0,0,0,0,0,0,-0.4217,-0.4219,-0.4353,-0.4354,-0.4356,-0.4451,-0.4452,-0.4454,-0.4515,-0.4515,-0.4516,-0.4516,-0.4615,-0.4618,-0.462,0,0,0,0,0,0,0,0,0,0,0,0,0,-0.4291,-0.4219,-0.4353,-0.4398,-0.4403,-0.4451,-0.4453,-0.4454,-0.4515,-0.4515,-0.4516,-0.4516,-0.4614,-0.4617,-0.4621,-0.4632,0,0,-0.4631,-0.4633,0,0,0,0,0,0,0,0,-0.4287,-0.4296,-0.439,-0.4395,-0.44,-0.4472,-0.4441,-0.4514,-0.4515,-0.4472,-0.4516,-0.4517,-0.4567,-0.4575,-0.4592,-0.4637,-0.4641,-0.4632,-0.4634,-0.4635,-0.4636,0,0,0,0,0,0,0,-0.4282,-0.4292,-0.4392,-0.4391,-0.4397,-0.4412,-0.4423,-0.4455,-0.4516,-0.4476,-0.4481,-0.4492,-0.457,-0.4588,-0.4595,-0.4642,-0.4632,-0.4635,-0.4637,-0.4638,-0.4699,-0.4699,0,0,0,0,0,0,-0.427,-0.4288,-0.4389,-0.4395,-0.4344,-0.4414,-0.4427,-0.4448,-0.4515,-0.4526,-0.4491,-0.4494,-0.4582,-0.459,-0.4598,-0.4615,-0.4635,-0.4639,-0.4641,-0.47,-0.4699,-0.4699,0,0,0,0,0,0,-0.4267,-0.4278,-0.4385,-0.4343,-0.4357,-0.4416,-0.4439,-0.445,-0.4468,-0.4527,-0.4538,-0.4499,-0.4583,-0.4593,-0.4623,-0.4619,-0.464,-0.4643,-0.47,-0.4699,-0.4699,-0.4648,0,0,0,0,0,0,-0.4262,-0.4277,-0.4282,-0.4342,-0.4359,-0.4408,-0.4439,-0.4451,-0.4474,-0.4479,-0.4537,-0.4547,-0.4584,-0.4617,-0.4626,-0.4624,-0.4646,-0.4701,-0.47,-0.4699,-0.465,-0.4646,-0.4642,0,0,0,0,0,-0.4257,-0.4264,-0.4282,-0.4294,-0.4367,-0.4408,-0.4418,-0.4461,-0.4473,-0.4479,-0.4516,-0.4545,-0.4618,-0.462,-0.463,-0.4629,-0.4701,-0.47,-0.4699,-0.4652,-0.4646,-0.4642,0,0,0,0,0,0,-0.4202,-0.4273,-0.4294,-0.432,-0.4357,-0.4418,-0.4427,-0.4453,-0.4488,-0.4491,-0.4542,-0.4555,-0.4579,-0.4607,-0.4608,-0.4643,-0.4663,-0.4664,-0.4623,-0.4618,-0.4614,-0.4607,-0.4649,0,0,0,0,0,-0.4193,-0.422,-0.4281,-0.4298,-0.4316,-0.4367,-0.4387,-0.4417,-0.4457,-0.4473,-0.4513,-0.4551,-0.4582,-0.4602,-0.4634,-0.4654,-0.4667,-0.4659,-0.4654,-0.4651,-0.4651,-0.4662,-0.4659,-0.4695,-0.4695,-0.4695,0,0,-0.4174,-0.4216,-0.4231,-0.4288,-0.432,-0.4347,-0.4381,-0.4408,-0.4427,-0.4478,-0.4507,-0.4537,-0.4583,-0.4607,-0.462,-0.4632,-0.4643,-0.4649,-0.4646,-0.4648,-0.4661,-0.4657,-0.4654,-0.4694,-0.4694,-0.4695,0,0,-0.4154,-0.4189,-0.4207,-0.4238,-0.4287,-0.4321,-0.4325,-0.4382,-0.4404,-0.4434,-0.4472,-0.4496,-0.4549,-0.458,-0.4602,-0.4591,-0.4618,-0.46,-0.4578,-0.4588,-0.4585,-0.4583,-0.4578,-0.4576,-0.46,-0.46,-0.46,0,-0.4125,-0.4167,-0.4213,-0.4237,-0.426,-0.4307,-0.4324,-0.4353,-0.4409,-0.4424,-0.4436,-0.4503,-0.4537,-0.4568,-0.4565,-0.4582,-0.4588,-0.4594,-0.4582,-0.458,-0.4579,-0.4574,-0.4573,-0.4598,-0.4598,-0.4598,-0.4599,0,-0.4128,-0.4156,-0.4165,-0.4217,-0.4242,-0.4263,-0.4311,-0.433,-0.4357,-0.4389,-0.4419,-0.4461,-0.4502,-0.4512,-0.4539,-0.4547,-0.4552,-0.4572,-0.4594,-0.4572,-0.4569,-0.4568,-0.4594,-0.4595,-0.4596,-0.4596,0,0,-0.4077,-0.4153,-0.4156,-0.4179,-0.4236,-0.4258,-0.428,-0.432,-0.4335,-0.4372,-0.4391,-0.4434,-0.4453,-0.4478,-0.4509,-0.4518,-0.4505,-0.4537,-0.4539,-0.4529,-0.4514,-0.4498,-0.4495,-0.4523,-0.4523,-0.4523,-0.451,0,-0.4064,-0.4107,-0.4148,-0.4175,-0.4201,-0.4244,-0.4264,-0.4299,-0.433,-0.4356,-0.4389,-0.4419,-0.4442,-0.4457,-0.4468,-0.4504,-0.4502,-0.4505,-0.454,-0.4541,-0.4527,-0.4494,-0.4478,-0.4464,-0.4509,-0.4509,-0.4509,0,-0.4056,-0.409,-0.412,-0.4172,-0.4184,-0.4201,-0.424,-0.4264,-0.4305,-0.4327,-0.4354,-0.4386,-0.441,-0.4428,-0.4462,-0.4463,-0.4479,-0.4499,-0.4499,-0.4504,-0.4523,-0.4497,-0.446,-0.4458,-0.4508,-0.4508,-0.4508,0,-0.4014,-0.4067,-0.4092,-0.4111,-0.4173,-0.4183,-0.4209,-0.4251,-0.4271,-0.4305,-0.4319,-0.4355,-0.4375,-0.4402,-0.4442,-0.4452,-0.4471,-0.4493,-0.4488,-0.4487,-0.449,-0.4489,-0.4455,-0.4502,-0.4502,-0.4502,-0.4502,0,-0.3995,-0.4011,-0.4074,-0.4089,-0.4108,-0.4154,-0.4172,-0.4201,-0.4238,-0.4258,-0.4298,-0.4317,-0.4369,-0.4394,-0.4425,-0.4447,-0.4456,-0.4474,-0.4482,-0.447,-0.4467,-0.4481,-0.4483,-0.4501,-0.4501,-0.4501,-0.4501,0,-0.3952,-0.3994,-0.4024,-0.4079,-0.4093,-0.4105,-0.4152,-0.4168,-0.42,-0.4226,-0.4234,-0.4285,-0.4315,-0.4358,-0.4402,-0.4423,-0.4441,-0.4454,-0.4427,-0.4432,-0.4424,-0.4424,-0.4397,-0.4395,-0.4443,-0.4443,-0.4442,0,-0.3937,-0.395,-0.4007,-0.4024,-0.4048,-0.4075,-0.4096,-0.4142,-0.4162,-0.4208,-0.4218,-0.4252,-0.4281,-0.4328,-0.4368,-0.4401,-0.4415,-0.4404,-0.4421,-0.4408,-0.4414,-0.4412,-0.4413,-0.4399,-0.4398,-0.4398,-0.4397,0,-0.3905,-0.3925,-0.3955,-0.399,-0.4014,-0.4045,-0.4077,-0.4089,-0.4141,-0.4161,-0.4193,-0.4216,-0.426,-0.4293,-0.4331,-0.4357,-0.4385,-0.4392,-0.4392,-0.438,-0.4363,-0.4371,-0.4415,-0.4392,-0.4393,-0.4393,-0.4393,-0.4393,-0.3876,-0.3889,-0.393,-0.3961,-0.399,-0.4019,-0.4036,-0.4069,-0.4097,-0.4136,-0.4161,-0.4191,-0.4231,-0.4285,-0.431,-0.4333,-0.4345,-0.4346,-0.4346,-0.4346,-0.4341,-0.4359,-0.4341,-0.4341,-0.4341,-0.4341,-0.4341,0,-0.3845,-0.3874,-0.3901,-0.3945,-0.3969,-0.3993,-0.403,-0.4048,-0.4074,-0.4108,-0.4136,-0.4171,-0.4202,-0.4244,-0.4278,-0.4289,-0.4303,-0.4296,-0.4296,-0.4301,-0.4329,-0.4325,-0.4285,-0.4285,-0.4285,-0.4285,-0.4285,-0.4285,-0.3832,-0.3856,-0.388,-0.3918,-0.3946,-0.3976,-0.3995,-0.4021,-0.4048,-0.4086,-0.4112,-0.4139,-0.4176,-0.4213,-0.4242,-0.4254,-0.4264,-0.4253,-0.4269,-0.4294,-0.4299,-0.4304,-0.43,-0.4255,-0.4255,-0.4239,-0.4238,-0.4238]}]]